Flag for Canada Weather past 2 weeks in Prince Rupert, British Columbia, Canada

Now
37 °F

Clear.


Feels Like: 35 °F
Forecast: 40 / 55 °F
Wind: 3 mph from East

Location: Prince Rupert


UV Index: 0 (Low)

Visibility: 9 mi


Pressure: 29.93 "Hg

Humidity: 100%

Dew point: 37 °F

Location of Prince RupertLocation

Historic Weather in Prince Rupert

°F

Prince Rupert temperature yesterday

Maximum temperature yesterday: 48 °F (at 12:55 PM)
Minimum temperature yesterday: 41 °F (at 5:57 AM)
Average temperature yesterday: 44 °F

Past Weeks' High & Low Weather Summary

 TemperatureHumidityPressure
High54 °F (Apr 13, 2:00 PM)100% (Apr 1, 6:00 AM)30.31 "Hg (Apr 1, 6:00 AM)
Low32 °F (Apr 1, 5:00 AM)47% (Apr 13, 2:00 PM)29.60 "Hg (Apr 7, 8:00 PM)
Average43 °F89%29.90 "Hg
* Reported Apr 1 3:00 AM — Apr 16 3:00 AM, Prince Rupert, Weather by CustomWeather, © 2014

Note: Actual official high and low records may vary slightly from our data, if they occured in-between our weather recording intervals... More about our weather records

Advertising

Historic Weather Conditions — Data for Previous 24 hours

 ConditionsComfort  
Time TempWeatherWind HumidityBarometerVisibility
3:00 AM
Apr 16
37 °FClear.3 mph100%29.93 "Hg9 mi
2:00 AM41 °FClear.7 mph93%29.94 "Hg9 mi
1:00 AM41 °FMostly cloudy.6 mph93%29.96 "Hg9 mi
9:00 PM
Apr 15
43 °FPassing clouds.3 mph87%29.97 "Hg9 mi
8:00 PM45 °FMostly cloudy.8 mph81%29.97 "Hg9 mi
6:00 PM48 °FMostly cloudy.12 mph76%29.97 "Hg9 mi
4:00 PM46 °FLight rain. Mostly cloudy.12 mph82%29.96 "Hg9 mi
3:00 PM45 °FLight rain. Overcast.5 mph93%29.97 "Hg7 mi
2:03 PM46 °FLight rain. More clouds than sun.12 mph87%29.96 "Hg9 mi
1:00 PM48 °FPartly sunny.10 mph82%29.95 "Hg9 mi
12:55 PM48 °FPartly sunny.7 mph82%29.95 "Hg9 mi
12:00 PM45 °FLight rain. Mostly cloudy.5 mph93%29.95 "Hg9 mi
11:00 AM45 °FLight rain. Overcast.5 mph87%29.95 "Hg9 mi
10:00 AM45 °FMostly cloudy.3 mph93%29.94 "Hg9 mi
9:00 AM43 °FOvercast.3 mph93%29.93 "Hg9 mi
6:00 AM41 °FLight rain. Mostly cloudy.8 mph100%29.91 "Hg9 mi
5:57 AM41 °FLight rain. Overcast.7 mph100%29.91 "Hg9 mi
5:00 AM43 °FLight rain. Fog.10 mph93%29.92 "Hg5 mi
4:00 AM43 °FLight rain. Fog.8 mph100%29.92 "Hg5 mi
Weather by CustomWeather, © 2014

See weather overview